This is the latest recevied weather packets stored in our database for station/object SV9TNF-1. If no packets are shown the sender has not sent any weather packets the latest 1 day(s).
| Time | Temp. | Humidity | Pressure | Rain* | Wind** | Luminosity | Snow |
|---|---|---|---|---|---|---|---|
| 1778005508 | 17.78° C | 46% | 1005.1 hPa | 0 mm | 7.6 m/s, 308° | - | - |
| 1778005208 | 17.78° C | 44% | 1005.1 hPa | 0 mm | 10.28 m/s, 247° | - | - |
| 1778004908 | 17.78° C | 45% | 1005.1 hPa | 0 mm | 8.05 m/s, 303° | - | - |
| 1778004608 | 17.78° C | 45% | 1005.1 hPa | 0 mm | 8.94 m/s, 323° | - | - |
| 1778004308 | 17.78° C | 45% | 1005.1 hPa | 0 mm | 10.28 m/s, 341° | - | - |
| 1778004008 | 17.78° C | 45% | 1005.1 hPa | 0 mm | 10.28 m/s, 226° | - | - |
| 1778003708 | 17.78° C | 45% | 1005.1 hPa | 0 mm | 7.6 m/s, 333° | - | - |
| 1778003407 | 17.78° C | 50% | 1005.1 hPa | 0 mm | 8.94 m/s, 321° | - | - |
| 1778003107 | 17.78° C | 50% | 1005.1 hPa | 0 mm | 8.94 m/s, 254° | - | - |
| 1778002807 | 18.33° C | 51% | 1005.1 hPa | 0 mm | 11.18 m/s, 287° | - | - |
| 1778002507 | 18.33° C | 50% | 1005.1 hPa | 0 mm | 13.41 m/s, 191° | - | - |
| 1778002207 | 18.33° C | 51% | 1005.1 hPa | 0 mm | 10.28 m/s, 250° | - | - |
| 1778001907 | 18.33° C | 51% | 1005.1 hPa | 0 mm | 10.73 m/s, 234° | - | - |
| 1778001607 | 18.89° C | 52% | 1005.1 hPa | 0 mm | 8.94 m/s, 335° | - | - |
| 1778001307 | 18.89° C | 52% | 1005.1 hPa | 0 mm | 11.18 m/s, 315° | - | - |
| 1778001007 | 18.89° C | 52% | 1005.1 hPa | 0 mm | 8.94 m/s, 327° | - | - |
| 1778000707 | 19.44° C | 51% | 1005.1 hPa | 0 mm | 9.83 m/s, 331° | - | - |
| 1778000406 | 19.44° C | 50% | 1005.1 hPa | 0 mm | 11.18 m/s, 233° | - | - |
| 1778000106 | 19.44° C | 51% | 1005.1 hPa | 0 mm | 8.94 m/s, 270° | - | - |
| 1777999807 | 19.44° C | 50% | 1005.1 hPa | 0 mm | 11.62 m/s, 268° | - | - |
| 1777999506 | 20° C | 50% | 1005.1 hPa | 0 mm | 8.05 m/s, 307° | - | - |
| 1777999206 | 20° C | 48% | 1005.1 hPa | 0 mm | 9.83 m/s, 254° | - | - |
| 1777998907 | 20° C | 47% | 1005.1 hPa | 0 mm | 12.07 m/s, 265° | - | - |
| 1777998606 | 20° C | 48% | 1005.1 hPa | 0 mm | 6.26 m/s, 126° | - | - |
| 1777998306 | 20.56° C | 47% | 1005.1 hPa | 0 mm | 9.83 m/s, 178° | - | - |
* Rain latest hour (hover to see other rain measurements)
** Current wind speed in m/s (hover to see current wind gust speed)